[[{"header":{"parameterUnit":"m.s-1","parameterCategory":1,"la1":30.2991,"la2":30.254,"lo1":-89.0895,"lo2":-89.0444,"dy":0.0017,"dx":0.0017,"nx":28,"ny":28,"refTime":"2023-08-29T21:00:00:Z","depth":0,"parameterNumber":2,"parameterNumberName":"U-component_of_WINDS"},"data":[0,0,0,0,0,0,0,0,0,0,0,0,0,0,0,0,0,0,0,0,0,0,0,0,0,0,0,0,0,0,0,0,0,0,0,0,0,0,0,0,0,0,0,0,0,0,0,0,0,0,0,0,0,0,0,0,0,0,-2.2787,-2.2787,0,-2.2777,-2.2777,-2.2777,-2.264,-2.2636,-2.2633,-2.263,-2.2623,-2.2626,-2.2629,0,0,0,0,0,0,0,0,0,0,0,0,0,-2.2691,-2.2693,-2.2787,-2.2787,-2.2787,-2.2777,-2.2777,-2.2777,-2.264,-2.2636,-2.2632,-2.2628,-2.2622,-2.2626,-2.2629,0,0,0,0,0,0,0,0,0,0,0,0,0,-2.2712,-2.2694,-2.2788,-2.2718,-2.2711,-2.2777,-2.2777,-2.2777,-2.2641,-2.2636,-2.2631,-2.2626,-2.2621,-2.2625,-2.263,-2.2763,0,0,-2.2644,-2.2646,0,0,0,0,0,0,0,0,-2.2711,-2.2716,-2.2728,-2.2723,-2.2716,-2.2704,-2.274,-2.2772,-2.2643,-2.2668,-2.2629,-2.2623,-2.2655,-2.2656,-2.2666,-2.2763,-2.2762,-2.2644,-2.2647,-2.2649,-2.265,0,0,0,0,0,0,0,-2.271,-2.2716,-2.2783,-2.2728,-2.2721,-2.2688,-2.2685,-2.2746,-2.2691,-2.2665,-2.2655,-2.2656,-2.265,-2.2662,-2.2665,-2.2762,-2.2644,-2.2648,-2.2651,-2.2653,-2.2968,-2.2973,0,0,0,0,0,0,-2.2718,-2.2715,-2.2784,-2.2783,-2.27,-2.2694,-2.2691,-2.2713,-2.269,-2.2681,-2.266,-2.265,-2.2656,-2.2659,-2.2664,-2.2819,-2.2649,-2.2653,-2.2656,-2.2962,-2.2969,-2.2975,0,0,0,0,0,0,-2.2716,-2.2725,-2.2784,-2.2746,-2.2751,-2.2701,-2.2728,-2.2716,-2.2727,-2.2686,-2.2676,-2.2682,-2.2652,-2.2657,-2.2739,-2.2817,-2.2655,-2.266,-2.2956,-2.2964,-2.2972,-2.313,0,0,0,0,0,0,-2.2714,-2.2725,-2.2775,-2.2749,-2.2754,-2.286,-2.2732,-2.2719,-2.2735,-2.2721,-2.2704,-2.2696,-2.2649,-2.2733,-2.2744,-2.282,-2.2663,-2.2949,-2.296,-2.2969,-2.3118,-2.3143,-2.3164,0,0,0,0,0,-2.2711,-2.2821,-2.2778,-2.2787,-2.2815,-2.2864,-2.2867,-2.281,-2.2742,-2.2792,-2.2765,-2.2696,-2.2806,-2.2742,-2.2753,-2.2833,-2.2943,-2.2956,-2.2969,-2.3107,-2.3138,-2.3164,0,0,0,0,0,0,-2.286,-2.2816,-2.2769,-2.2873,-2.2873,-2.2841,-2.2903,-2.2844,-2.2865,-2.2851,-2.2779,-2.2776,-2.287,-2.2858,-2.2789,-2.296,-2.2863,-2.2878,-2.2964,-2.2993,-2.3016,-2.3018,-2.2667,0,0,0,0,0,-2.2904,-2.2947,-2.2907,-2.3003,-2.3005,-2.2954,-2.2973,-2.2929,-2.2927,-2.2927,-2.2906,-2.2907,-2.2941,-2.2966,-2.2996,-2.3114,-2.3109,-2.3174,-2.3197,-2.3216,-2.3232,-2.3294,-2.3323,-2.3016,-2.3016,-2.3016,0,0,-2.2998,-2.2979,-2.3011,-2.3032,-2.3027,-2.3074,-2.2955,-2.301,-2.3044,-2.2935,-2.3011,-2.2996,-2.2993,-2.3094,-2.3137,-2.3088,-2.3315,-2.3233,-2.3248,-2.3253,-2.331,-2.3339,-2.3365,-2.3025,-2.3023,-2.3022,0,0,-2.3193,-2.3182,-2.3261,-2.3258,-2.3251,-2.3216,-2.3235,-2.3211,-2.3196,-2.3271,-2.319,-2.3229,-2.329,-2.3292,-2.33,-2.3493,-2.3431,-2.3505,-2.3628,-2.3689,-2.3714,-2.3735,-2.3805,-2.3831,-2.3519,-2.352,-2.352,0,-2.331,-2.3377,-2.331,-2.3369,-2.3382,-2.3282,-2.3362,-2.3363,-2.3367,-2.3378,-2.3321,-2.3395,-2.3386,-2.3486,-2.3533,-2.3543,-2.3563,-2.3508,-2.3715,-2.3736,-2.3754,-2.3821,-2.3847,-2.3529,-2.3528,-2.3527,-2.3526,0,-2.3522,-2.3569,-2.3634,-2.3639,-2.3658,-2.3728,-2.3672,-2.3699,-2.3652,-2.3623,-2.3701,-2.3685,-2.371,-2.373,-2.3685,-2.3824,-2.3794,-2.3727,-2.3629,-2.3794,-2.3855,-2.388,-2.3542,-2.3538,-2.3536,-2.3533,0,0,-2.3814,-2.3778,-2.3804,-2.3804,-2.3788,-2.3824,-2.3889,-2.3911,-2.3937,-2.3942,-2.3996,-2.4049,-2.3987,-2.3997,-2.3951,-2.4005,-2.416,-2.3931,-2.393,-2.3976,-2.4314,-2.4366,-2.4397,-2.4118,-2.4122,-2.4126,-2.4315,0,-2.4003,-2.4111,-2.4052,-2.4169,-2.4212,-2.4118,-2.4174,-2.4171,-2.4145,-2.4179,-2.415,-2.4189,-2.4104,-2.4109,-2.4158,-2.4131,-2.4228,-2.4116,-2.4169,-2.4172,-2.4176,-2.4428,-2.4484,-2.4663,-2.4338,-2.4342,-2.4345,0,-2.4239,-2.4253,-2.4374,-2.4349,-2.4365,-2.4417,-2.4433,-2.4465,-2.446,-2.4437,-2.4447,-2.4388,-2.4451,-2.4351,-2.4437,-2.4363,-2.438,-2.437,-2.4375,-2.438,-2.4271,-2.4443,-2.4719,-2.4747,-2.4382,-2.4379,-2.4376,0,-2.4442,-2.4491,-2.4569,-2.4573,-2.4545,-2.4584,-2.4574,-2.4563,-2.458,-2.4594,-2.4605,-2.4626,-2.4639,-2.4657,-2.4605,-2.4537,-2.4699,-2.4595,-2.4684,-2.4686,-2.4725,-2.4724,-2.5011,-2.4733,-2.4732,-2.4732,-2.4731,0,-2.4661,-2.474,-2.466,-2.4709,-2.4794,-2.4724,-2.4811,-2.4791,-2.4782,-2.4826,-2.4744,-2.4788,-2.4715,-2.4752,-2.4711,-2.479,-2.4796,-2.478,-2.4769,-2.4789,-2.4792,-2.4802,-2.4789,-2.4739,-2.4737,-2.4736,-2.4735,0,-2.4904,-2.4853,-2.4933,-2.4899,-2.4893,-2.4957,-2.4929,-2.4973,-2.494,-2.4997,-2.5006,-2.4956,-2.4994,-2.4943,-2.4977,-2.495,-2.5058,-2.5027,-2.506,-2.5052,-2.5145,-2.5138,-2.545,-2.5489,-2.5184,-2.5187,-2.519,0,-2.5048,-2.5106,-2.5078,-2.5101,-2.5096,-2.5134,-2.515,-2.5083,-2.5104,-2.5101,-2.5146,-2.5177,-2.5199,-2.5265,-2.5232,-2.5257,-2.5228,-2.5335,-2.5231,-2.525,-2.5232,-2.523,-2.5236,-2.5358,-2.5362,-2.5365,-2.5367,0,-2.5311,-2.5282,-2.5309,-2.5327,-2.5348,-2.5359,-2.5365,-2.5388,-2.5318,-2.5346,-2.5383,-2.54,-2.5433,-2.5465,-2.5482,-2.5472,-2.541,-2.5399,-2.5422,-2.5444,-2.5462,-2.5456,-2.5121,-2.5393,-2.5391,-2.5389,-2.5387,-2.5386,-2.551,-2.5557,-2.5545,-2.5577,-2.5573,-2.5579,-2.5619,-2.559,-2.562,-2.5641,-2.5599,-2.5648,-2.5639,-2.5654,-2.5652,-2.5689,-2.5643,-2.5675,-2.5684,-2.5693,-2.5708,-2.5454,-2.5692,-2.5691,-2.569,-2.569,-2.5689,0,-2.577,-2.5757,-2.5786,-2.5795,-2.5821,-2.5755,-2.5757,-2.5784,-2.5826,-2.5823,-2.5845,-2.5889,-2.5919,-2.5888,-2.5913,-2.5949,-2.592,-2.5958,-2.5956,-2.5955,-2.5748,-2.5727,-2.598,-2.598,-2.598,-2.598,-2.598,-2.598,-2.5909,-2.5985,-2.5955,-2.6029,-2.6014,-2.606,-2.6067,-2.6072,-2.6069,-2.6121,-2.6145,-2.6124,-2.611,-2.6132,-2.6158,-2.6148,-2.6162,-2.621,-2.6191,-2.5998,-2.597,-2.5943,-2.5923,-2.6213,-2.6213,-2.6395,-2.6396,-2.6398]},{"header":{"parameterUnit":"m.s-1","parameterCategory":1,"la1":30.2991,"la2":30.254,"lo1":-89.0895,"lo2":-89.0444,"dy":0.0017,"dx":0.0017,"nx":28,"ny":28,"refTime":"2023-08-29T21:00:00:Z","depth":0,"parameterNumber":3,"parameterNumberName":"V-component_of_WINDS"},"data":[0,0,0,0,0,0,0,0,0,0,0,0,0,0,0,0,0,0,0,0,0,0,0,0,0,0,0,0,0,0,0,0,0,0,0,0,0,0,0,0,0,0,0,0,0,0,0,0,0,0,0,0,0,0,0,0,0,0,-3.5136,-3.5137,0,-3.5168,-3.5169,-3.5169,-3.5136,-3.5135,-3.5133,-3.5132,-3.5164,-3.5166,-3.5168,0,0,0,0,0,0,0,0,0,0,0,0,0,-3.5045,-3.5047,-3.5136,-3.5137,-3.5137,-3.5168,-3.5169,-3.5169,-3.5136,-3.5135,-3.5133,-3.5132,-3.5163,-3.5166,-3.5168,0,0,0,0,0,0,0,0,0,0,0,0,0,-3.5081,-3.5047,-3.5136,-3.5125,-3.5124,-3.5168,-3.5169,-3.5169,-3.5136,-3.5135,-3.5133,-3.5131,-3.5162,-3.5165,-3.5168,-3.5226,0,0,-3.5178,-3.5179,0,0,0,0,0,0,0,0,-3.5079,-3.5085,-3.5126,-3.5125,-3.5125,-3.5146,-3.5148,-3.5188,-3.5137,-3.5132,-3.5132,-3.513,-3.516,-3.5163,-3.5173,-3.5227,-3.5229,-3.5178,-3.518,-3.5181,-3.5182,0,0,0,0,0,0,0,-3.5077,-3.5083,-3.5149,-3.5126,-3.5126,-3.5117,-3.512,-3.5155,-3.5156,-3.5132,-3.513,-3.5134,-3.5159,-3.517,-3.5173,-3.5229,-3.5178,-3.5181,-3.5183,-3.5184,-3.5328,-3.533,0,0,0,0,0,0,-3.5076,-3.5081,-3.5148,-3.515,-3.5097,-3.512,-3.5123,-3.5141,-3.5155,-3.5156,-3.5135,-3.5132,-3.5166,-3.517,-3.5174,-3.524,-3.5181,-3.5184,-3.5186,-3.5326,-3.5329,-3.5331,0,0,0,0,0,0,-3.5074,-3.5082,-3.5147,-3.5115,-3.5122,-3.5124,-3.5144,-3.5143,-3.5154,-3.5158,-3.5158,-3.5147,-3.5164,-3.517,-3.5212,-3.5241,-3.5185,-3.5188,-3.5324,-3.5327,-3.533,-3.5373,0,0,0,0,0,0,-3.5072,-3.5082,-3.5104,-3.5116,-3.5124,-3.5185,-3.5146,-3.5145,-3.5159,-3.5155,-3.5169,-3.5169,-3.5163,-3.5208,-3.5215,-3.5244,-3.5191,-3.5321,-3.5325,-3.5329,-3.5369,-3.5377,-3.5384,0,0,0,0,0,-3.5068,-3.5116,-3.5106,-3.5114,-3.5153,-3.5187,-3.5192,-3.5184,-3.5162,-3.5184,-3.5186,-3.5169,-3.5237,-3.5213,-3.5221,-3.525,-3.532,-3.5324,-3.5329,-3.5366,-3.5375,-3.5384,0,0,0,0,0,0,-3.5108,-3.5117,-3.5106,-3.5159,-3.5172,-3.5181,-3.5209,-3.5195,-3.5216,-3.5211,-3.5201,-3.5204,-3.5248,-3.5254,-3.5227,-3.5305,-3.5274,-3.5281,-3.53,-3.5309,-3.5316,-3.5313,-3.5193,0,0,0,0,0,-3.5123,-3.515,-3.5157,-3.5202,-3.521,-3.5208,-3.5223,-3.5216,-3.5229,-3.5235,-3.524,-3.5254,-3.5278,-3.5294,-3.5317,-3.537,-3.5371,-3.5394,-3.5402,-3.5408,-3.5413,-3.5439,-3.5448,-3.5346,-3.5346,-3.5346,0,0,-3.5154,-3.5162,-3.518,-3.521,-3.522,-3.5247,-3.5213,-3.5245,-3.5264,-3.524,-3.5279,-3.5284,-3.5298,-3.5345,-3.5366,-3.5351,-3.5441,-3.5413,-3.5418,-3.542,-3.5444,-3.5454,-3.5462,-3.5349,-3.5348,-3.5348,0,0,-3.5223,-3.5234,-3.5271,-3.5281,-3.5296,-3.5294,-3.5303,-3.5314,-3.5316,-3.5356,-3.5337,-3.536,-3.5402,-3.5412,-3.5423,-3.5494,-3.5478,-3.5502,-3.554,-3.5566,-3.5574,-3.5581,-3.5604,-3.5612,-3.5507,-3.5507,-3.5507,0,-3.526,-3.5301,-3.5292,-3.5324,-3.5337,-3.5315,-3.5352,-3.5362,-3.5384,-3.5393,-3.5375,-3.5426,-3.5435,-3.5482,-3.5499,-3.551,-3.5518,-3.55,-3.5573,-3.558,-3.5587,-3.5608,-3.5617,-3.551,-3.551,-3.5509,-3.5509,0,-3.5344,-3.5373,-3.5401,-3.5421,-3.5437,-3.5472,-3.5467,-3.5484,-3.5475,-3.5475,-3.5514,-3.5523,-3.5546,-3.5557,-3.5549,-3.5603,-3.5593,-3.5575,-3.5544,-3.5599,-3.5619,-3.5628,-3.5514,-3.5513,-3.5512,-3.5511,0,0,-3.544,-3.5453,-3.5464,-3.5471,-3.5485,-3.5507,-3.5539,-3.5561,-3.5575,-3.559,-3.5616,-3.5651,-3.5633,-3.5646,-3.5638,-3.5661,-3.5713,-3.5639,-3.564,-3.5651,-3.5771,-3.5783,-3.5793,-3.5703,-3.5705,-3.5706,-3.5769,0,-3.5509,-3.5565,-3.5556,-3.561,-3.5635,-3.5614,-3.5642,-3.5652,-3.5653,-3.5673,-3.5673,-3.5697,-3.5674,-3.568,-3.5702,-3.5703,-3.5737,-3.5698,-3.5725,-3.5726,-3.5721,-3.5804,-3.5817,-3.5876,-3.5777,-3.5778,-3.5779,0,-3.5596,-3.5613,-3.5669,-3.5676,-3.5686,-3.5711,-3.5729,-3.575,-3.5761,-3.5759,-3.5771,-3.5759,-3.579,-3.5759,-3.5801,-3.5774,-3.5785,-3.5787,-3.5789,-3.579,-3.5755,-3.5805,-3.5895,-3.5903,-3.5792,-3.5791,-3.579,0,-3.5658,-3.5695,-3.5732,-3.5739,-3.5749,-3.5767,-3.5772,-3.5781,-3.5794,-3.5809,-3.5817,-3.5837,-3.5847,-3.5861,-3.5854,-3.5833,-3.5896,-3.5865,-3.5894,-3.5894,-3.5907,-3.5906,-3.5998,-3.5917,-3.5917,-3.5917,-3.5917,0,-3.5734,-3.5768,-3.5759,-3.5782,-3.5819,-3.5809,-3.5846,-3.5848,-3.5856,-3.5878,-3.5861,-3.5882,-3.5872,-3.5892,-3.5887,-3.592,-3.5926,-3.5924,-3.5922,-3.5925,-3.5925,-3.593,-3.5925,-3.5919,-3.5919,-3.5918,-3.5918,0,-3.5808,-3.5804,-3.5843,-3.5848,-3.585,-3.5877,-3.5882,-3.5902,-3.5901,-3.5928,-3.5934,-3.5932,-3.5954,-3.5949,-3.5973,-3.597,-3.6011,-3.6005,-3.6007,-3.6005,-3.6033,-3.603,-3.613,-3.6142,-3.6056,-3.6057,-3.6057,0,-3.5856,-3.5882,-3.589,-3.5903,-3.5908,-3.5931,-3.5943,-3.5933,-3.5947,-3.596,-3.5978,-3.5999,-3.6015,-3.6051,-3.6051,-3.6069,-3.6062,-3.6096,-3.6064,-3.6065,-3.6059,-3.6057,-3.6058,-3.6101,-3.6102,-3.6103,-3.6104,0,-3.5941,-3.5937,-3.5955,-3.5972,-3.5987,-3.6,-3.6012,-3.6024,-3.6015,-3.6031,-3.6053,-3.6065,-3.6089,-3.6109,-3.6125,-3.6129,-3.6115,-3.6114,-3.6121,-3.6123,-3.6122,-3.6121,-3.6022,-3.6111,-3.6111,-3.611,-3.611,-3.6109,-3.6002,-3.6023,-3.603,-3.6051,-3.6058,-3.6069,-3.6087,-3.6087,-3.6106,-3.6124,-3.6117,-3.6142,-3.615,-3.617,-3.6176,-3.6195,-3.6182,-3.6193,-3.6195,-3.6198,-3.62,-3.6121,-3.6198,-3.6198,-3.6198,-3.6197,-3.6197,0,-3.6084,-3.6087,-3.6106,-3.6122,-3.6137,-3.6122,-3.6133,-3.6147,-3.6169,-3.6177,-3.6193,-3.6217,-3.6235,-3.6236,-3.6254,-3.6268,-3.6261,-3.6273,-3.627,-3.6271,-3.6212,-3.6203,-3.6277,-3.6277,-3.6277,-3.6277,-3.6277,-3.6277,-3.6128,-3.6161,-3.6157,-3.6193,-3.6196,-3.622,-3.6227,-3.6236,-3.6243,-3.627,-3.6285,-3.6286,-3.629,-3.6308,-3.6323,-3.6323,-3.6329,-3.6343,-3.6339,-3.6284,-3.6276,-3.6268,-3.6259,-3.6345,-3.6345,-3.6397,-3.6397,-3.6398]}]]